Preview of NWS' New Version of Forecast
This preview is not operational and should not be used for support decisions.

Regional Weather Roundup (RWR)

Issued by National Weather Service (NWS)

                            
000
ASUS43 KLSX 240907
RWRMO 

WEATHER SUMMARY FOR MISSOURI
NATIONAL WEATHER SERVICE SPRINGFIELD MO
400 AM CDT SUN MAR 24 2019

NOTE: "FAIR" INDICATES FEW OR NO CLOUDS BELOW 12,000 FEET WITH NO
       SIGNIFICANT WEATHER AND/OR OBSTRUCTIONS TO VISIBILITY.
       CURRENT SKY AND/OR WEATHER CONDITIONS ARE NOT AVAILABLE FOR
       CHILLICOTHE AND FARMINGTON.

MOZ001>031-035>038-043-044-053-054-241000-
...NORTHERN AND WESTERN MISSOURI...
  
CITY           SKY/WX    TMP DP  RH WIND       PRES   REMARKS
KANSAS CTY INT CLOUDY    49  44  83 S10       29.96F                  
KANSAS C DTWN  CLOUDY    51  44  77 CALM      29.97S                  
LEE'S SUMMIT     N/A     49  43  80 S9        29.97S                  
ST JOSEPH        N/A    N/A N/A N/A MISG      29.95F                  
CHILLICOTHE      N/A     48  45  89 SE3       30.01F                  
KIRKSVILLE     CLOUDY    47  45  93 SE8       30.02F                  
     
$$
MOZ066>068-077>081-088>096-101>105-241000-
...SOUTHWEST MISSOURI...
  
CITY           SKY/WX    TMP DP  RH WIND       PRES   REMARKS
SPRINGFIELD    CLOUDY    50  46  86 S14       29.98F                  
JOPLIN         CLOUDY    51  49  92 S12       29.98F                  
BRANSON        CLOUDY    46  46 100 E9        30.06F FOG              
               
$$
MOZ032>034-039>042-045>050-055>058-069>072-241000-
...CENTRAL MISSOURI...  
  
CITY           SKY/WX    TMP DP  RH WIND       PRES   REMARKS
COLUMBIA       MOCLDY    50  42  74 SE13      30.01F                  
JEFFERSON CITY CLOUDY    50  43  77 SE8       30.03F                  
ROLLA          LGT RAIN  47  43  86 SE16G26   30.05F                  
SEDALIA        CLOUDY    50  45  83 S9        30.00S                  
WHITEMAN AFB   PTCLDY    47  47  98 S9        29.94F                  
WARRENSBURG    MOCLDY    46  43  87 SE6       29.98F                  
OSAGE BEACH    CLOUDY    49  46  90 S16       30.02F                  
               
$$
MOZ051-052-059>065-241000-
...EAST CENTRAL MISSOURI...
  
CITY           SKY/WX    TMP DP  RH WIND       PRES   REMARKS
ST LOUIS INTL  CLOUDY    46  43  89 SE5       30.09F                  
SPIRIT OF STL  CLOUDY    46  44  93 CALM      30.08F                  
ST CHARLES     CLOUDY    43  42  97 E6        30.08F FOG              
                   
$$
MOZ072>076-082>087-097>100-106>115-241000-
...SOUTH CENTRAL AND SOUTHEAST MISSOURI...
  
CITY           SKY/WX    TMP DP  RH WIND       PRES   REMARKS
CAPE GIRARDEAU LGT RAIN  51  38  60 SE5       30.11F                  
FARMINGTON     CLOUDY    46  42  86 S6        30.09F                  
POPLAR BLUFF   CLOUDY    51  41  68 CALM      30.10F                  
WEST PLAINS    LGT RAIN  47  44  90 NE5       30.11R FOG              
                                       
$$